Weather in Johor Bahru

Malaysia     1°31′11″N   103°48′35″E
temp.,
°C
wind,
m/s
gust,
m/s
humid.,
%
clouds,
%
prec.,
mm/h
press.,
hPa
HPBL,
m
14 april, wed
wed1423:00+26ne238797 0.0 101293
02:00+25nne12876 0.0 101132
05:00+25ne228829 0.3 101025
08:00+26nne118410 0.4 101274
11:00+30ssw22637 0.0 10131101
14:00+33ssw115229 0.0 10101797
17:00+30s237089 2.1 1008215
20:00+27ene127995 4.3 101028
15 april, thu
thu1523:00+26ne248640 0.0 101182
02:00+25ene2287100 0.0 101039
05:00+25nne2288100 0.0 100931
08:00+26n228545 0.2 101197
11:00+30n11665 1.4 1012718
14:00+31w116273 5.8 10101128
17:00+29e217399 6.6 1008447
20:00+26e1285100 9.1 101048
16 april, fri
fri1623:00+26ne1186100 0.1 101129
02:00+26nnw1187100 0.1 101020
05:00+25nne118899 0.0 100925
08:00+26nnw1286100 0.2 101188
11:00+30wsw116494 2.2 1012823
14:00+31s2161100 5.1 10101160
17:00+27ene2379100 8.0 1008225
20:00+25wsw119192 10.9 101167
17 april, sat
sat1723:00+25n1183100 0.1 101215
02:00+25n118373 0.1 101115
05:00+24wnw2287100 0.1 101137
08:00+25wnw128796 0.2 1013109
11:00+26wnw1181100 0.0 1013192
14:00+31se116394 0.0 10101149
17:00+29ssw3370100 3.6 1009766
20:00+26sw1283100 7.7 101126
18 april, sun
sun1823:00+26ne1184100 0.0 101320
02:00+25ne2289100 0.0 101229
05:00+24nne2289100 0.1 101128
08:00+25nnw1185100 0.1 101366
11:00+26ssw118271 1.3 101442
14:00+30s226041 3.0 10111288
17:00+30s3367100 1.4 1009894
20:00+26s2282100 2.4 101150